This is the latest recevied weather packets stored in our database for station/object N4DBJ. If no packets are shown the sender has not sent any weather packets the latest 1 day(s).
| Time | Temp. | Humidity | Pressure | Rain* | Wind** | Luminosity | Snow |
|---|---|---|---|---|---|---|---|
| 1778076981 | 10.56° C | 99% | 1009.8 hPa | 0 mm | - | 71 W/m² | - |
| 1778075163 | 10.56° C | 99% | 1009.5 hPa | 0 mm | - | 42 W/m² | - |
| 1778074859 | 10.56° C | 99% | 1009.4 hPa | 0 mm | - | 35 W/m² | - |
| 1778074556 | 10.56° C | 99% | 1009.4 hPa | 0 mm | - | 36 W/m² | - |
| 1778073041 | 10.56° C | 99% | 1009.3 hPa | 0 mm | - | 33 W/m² | - |
| 1778072738 | 10.56° C | 99% | 1009.5 hPa | 0 mm | - | 19 W/m² | - |
| 1778071529 | 10.56° C | 99% | 1009.4 hPa | 0 mm | - | 17 W/m² | - |
| 1778069410 | 10.56° C | 99% | 1009.1 hPa | 0 mm | - | 6 W/m² | - |
| 1778068201 | 10.56° C | 99% | 1008.7 hPa | 0 mm | - | 3 W/m² | - |
| 1778067294 | 10.56° C | 99% | 1008.6 hPa | 0 mm | - | 4 W/m² | - |
| 1778066688 | 10.56° C | 99% | 1008.5 hPa | 0 mm | - | 0 W/m² | - |
| 1778066385 | 10.56° C | 99% | 1008.1 hPa | 0 mm | - | 0 W/m² | - |
| 1778065780 | 10.56° C | 99% | 1007.6 hPa | 0 mm | - | 0 W/m² | - |
| 1778065478 | 11.11° C | 99% | 1008.2 hPa | 0 mm | - | 0 W/m² | - |
| 1778065174 | 11.11° C | 99% | 1008.7 hPa | 0 mm | - | 0 W/m² | - |
| 1778064870 | 10.56° C | 99% | 1007.7 hPa | 0 mm | - | 0 W/m² | - |
| 1778064568 | 11.11° C | 99% | 1007.5 hPa | 0 mm | - | 0 W/m² | - |
| 1778064266 | 11.11° C | 99% | 1007.5 hPa | 0 mm | - | 0 W/m² | - |
| 1778063964 | 11.11° C | 99% | 1007.7 hPa | 0 mm | - | 0 W/m² | - |
| 1778063661 | 11.11° C | 99% | 1007.4 hPa | 0 mm | - | 0 W/m² | - |
| 1778063056 | 11.11° C | 99% | 1007.3 hPa | 0 mm | - | 0 W/m² | - |
| 1778062753 | 11.11° C | 99% | 1007.1 hPa | 0 mm | - | 0 W/m² | - |
| 1778062449 | 11.11° C | 99% | 1007.1 hPa | 0 mm | - | 0 W/m² | - |
| 1778060030 | 11.11° C | 99% | 1006.6 hPa | 0 mm | - | 0 W/m² | - |
| 1778059122 | 11.11° C | 99% | 1007.3 hPa | 0 mm | - | 0 W/m² | - |
* Rain latest hour (hover to see other rain measurements)
** Current wind speed in m/s (hover to see current wind gust speed)